Regional Weather Roundup
Issued by NWS

Home | Current Version | Previous Version | Graphics & Text | Print | Product List | Glossary On
Versions: 1 2 3 4 5 6 7 8 9 10 11 12 13 14 15 16 17 18 19 20 21 22 23 24 25 26 27 28 29 30 31 32 33 34 35 36 37 38 39 40 41 42 43 44 45 46 47 48 49 50
000
ASUS43 KTOP 270508
RWRKS

WEATHER ROUNDUP FOR KANSAS
NATIONAL WEATHER SERVICE GOODLAND KS
1100 PM CST MON JAN 26 2015

NOTE:  "FAIR" INDICATES FEW OR NO CLOUDS BELOW 12,000 FEET WITH NO
SIGNIFICANT WEATHER AND/OR OBSTRUCTIONS TO VISIBILITY.

KSZ001>006-013>018-027>032-041>047-270600-
NORTHWEST KANSAS

CITY           SKY/WX    TMP DP  RH WIND       PRES   REMARKS
GOODLAND       PTCLDY    43  30  60 SW9       30.15F
HAYS           CLEAR     37  23  56 NW5       30.09S
HILL CITY      CLEAR     42  28  57 W6        30.10S
RUSSELL        CLEAR     39  29  67 SW7       30.06F
$$

KSZ061>065-074>080-084>089-270600-
SOUTHWEST KANSAS

CITY           SKY/WX    TMP DP  RH WIND       PRES   REMARKS
DODGE CITY     CLEAR     44  28  53 W7        30.13F
ELKHART          N/A     48  30  49 SW8         N/A
GARDEN CITY    PTCLDY    41  29  62 W8        30.14S
GREAT BEND     CLEAR     39  28  65 W8        30.09S
LIBERAL        CLEAR     43  28  56 W9        30.18F
PRATT          CLEAR     41  32  70 W10       30.11R
$$

KSZ066>073-081>083-090>101-270600-
SOUTHEAST KANSAS

CITY           SKY/WX    TMP DP  RH WIND       PRES   REMARKS
CHANUTE        CLEAR     38  33  82 N3        30.03F
COFFEYVILLE    CLEAR     43  34  70 N5        30.03S
HUTCHINSON     CLEAR     40  31  70 W3        30.07S
MEDICINE LODGE   N/A     42  31  64 N6        30.09R
NEWTON         CLEAR     46  28  49 W6        30.09R
PARSONS        CLEAR     47  35  63 N7        30.04S
WICHITA INTL   CLEAR     43  32  65 NW6       30.06R
WICHITA JABRA  CLEAR     48  34  58 W7        30.06R
WICHITA MCCONL CLEAR     48  34  59 N5        30.06S
WINFIELD       CLEAR     39  30  70 CALM      30.07S
$$

KSZ007>012-019>026-033>040-048>060-102>105-270600-
NORTHEAST KANSAS

CITY           SKY/WX    TMP DP  RH WIND       PRES   REMARKS
CONCORDIA      CLEAR     45  33  63 W7        30.05S
EMPORIA        CLEAR     46  31  55 W6        30.04R
LAWRENCE       CLEAR     32  26  78 NW5       30.04R
MANHATTAN      CLEAR     34  26  72 CALM      30.06R
MARYSVILLE     CLEAR     36  27  69 N5        30.05R
OLATHE IND     CLEAR     42  30  62 W5        30.03S
OLATHE EXE     CLEAR     44  31  60 NW5       30.01S
SALINA         CLEAR     41  31  67 CALM      30.07R
TOPEKA BILLARD CLEAR     36  28  73 CALM      30.05R
TOPEKA FORBES  CLEAR     36  27  69 N3        30.04R
$$



USA.gov is the U.S. government's official web portal to all federal, state and local government web resources and services.